When you browse on this site, cookies collect data to enhance your experience and personalize the content and advertising you see.
Visit our Privacy Policy to learn more. By continuing to use the site, you agree to this use of cookies and data.
  • In Portugal
  • List of Countries
  • For 7 days
  • Water Temperature
  • Satellite Maps
  • Weather Map
  • Weather Widgets
  • user-avatar
    Login

    Hourly Weather Manaus

    Today, 16 December, Sunday

    Time Temperature Precipitation Wind Pressure Humidity
    00:00 +23°C° 0 mm 0 mps 756 mmHg 93%
    01:00 +23°C° 0 mm 0 mps 756 mmHg 94%
    02:00 +22°C° 0 mm 0 mps 756 mmHg 95%
    03:00 +22°C° 0 mm 0 mps 756 mmHg 95%
    04:00 +22°C° 0 mm 0 mps 757 mmHg 95%
    05:00 +22°C° 0 mm 0 mps 757 mmHg 95%
    06:00 +25°C° 0 mm 1 mps 757 mmHg 90%
    07:00 +26°C° 0 mm 1 mps 758 mmHg 84%
    08:00 +28°C° 0 mm 1 mps 758 mmHg 79%
    09:00 +29°C° 0 mm 1 mps 758 mmHg 71%
    10:00 +31°C° 0 mm 2 mps 758 mmHg 63%
    11:00 +34°C° 0 mm 2 mps 758 mmHg 56%
    12:00 +34°C° 0 mm 2 mps 757 mmHg 53%
    13:00 +35°C° 0 mm 2 mps 756 mmHg 51%
    14:00 +36°C° 0 mm 2 mps 755 mmHg 49%
    15:00 +34°C° 0 mm 1 mps 754 mmHg 55%
    16:00 +33°C° 0 mm 1 mps 754 mmHg 60%
    17:00 +31°C° 0 mm 1 mps 753 mmHg 66%
    18:00 +30°C° 0 mm 1 mps 754 mmHg 72%
    19:00 +29°C° 0 mm 1 mps 754 mmHg 77%
    20:00 +27°C° 0 mm 1 mps 754 mmHg 82%
    21:00 +27°C° 0 mm 1 mps 755 mmHg 84%
    22:00 +26°C° 0 mm 1 mps 755 mmHg 86%
    23:00 +26°C° 0 mm 1 mps 756 mmHg 88%

    Tomorrow, 17 December, Monday

    Time Temperature Precipitation Wind Pressure Humidity
    00:00 +26°C° 0 mm 1 mps 755 mmHg 88%
    01:00 +25°C° 0 mm 1 mps 755 mmHg 88%
    02:00 +25°C° 0 mm 1 mps 755 mmHg 89%
    03:00 +25°C° 0 mm 1 mps 755 mmHg 89%
    04:00 +25°C° 0 mm 1 mps 755 mmHg 89%
    05:00 +25°C° 0 mm 1 mps 755 mmHg 89%
    06:00 +26°C° 0 mm 1 mps 755 mmHg 84%
    07:00 +27°C° 0 mm 1 mps 756 mmHg 78%
    08:00 +29°C° 0 mm 1 mps 756 mmHg 73%
    09:00 +31°C° 0.1 mm 2 mps 756 mmHg 66%
    10:00 +32°C° 0.1 mm 2 mps 756 mmHg 59%
    11:00 +35°C° 0.1 mm 2 mps 756 mmHg 52%
    12:00 +35°C° 0.1 mm 2 mps 755 mmHg 51%
    13:00 +36°C° 0.1 mm 2 mps 754 mmHg 50%
    14:00 +36°C° 0.1 mm 2 mps 753 mmHg 49%
    15:00 +35°C° 0.1 mm 2 mps 753 mmHg 54%
    16:00 +33°C° 0.1 mm 1 mps 753 mmHg 59%
    17:00 +32°C° 0.1 mm 1 mps 753 mmHg 64%
    18:00 +30°C° 0.5 mm 1 mps 753 mmHg 73%
    19:00 +28°C° 0.5 mm 2 mps 754 mmHg 81%
    20:00 +27°C° 0.5 mm 2 mps 754 mmHg 90%
    21:00 +26°C° 0.2 mm 2 mps 755 mmHg 92%
    22:00 +26°C° 0.2 mm 2 mps 755 mmHg 93%
    23:00 +25°C° 0.2 mm 1 mps 756 mmHg 95%

    Day after tomorrow, 18 December, Tuesday

    Time Temperature Precipitation Wind Pressure Humidity
    00:00 +25°C° 0.1 mm 1 mps 755 mmHg 95%
    01:00 +25°C° 0.1 mm 1 mps 755 mmHg 96%
    02:00 +25°C° 0.1 mm 1 mps 754 mmHg 96%
    03:00 +25°C° 0 mm 1 mps 754 mmHg 96%
    04:00 +25°C° 0 mm 1 mps 754 mmHg 96%
    05:00 +24°C° 0 mm 1 mps 754 mmHg 96%
    06:00 +26°C° 0.1 mm 1 mps 755 mmHg 92%
    07:00 +27°C° 0.1 mm 1 mps 756 mmHg 88%
    08:00 +28°C° 0.1 mm 2 mps 756 mmHg 84%
    09:00 +29°C° 0.6 mm 2 mps 756 mmHg 79%
    10:00 +31°C° 0.6 mm 2 mps 756 mmHg 75%
    11:00 +32°C° 0.6 mm 2 mps 756 mmHg 70%
    12:00 +32°C° 1.4 mm 2 mps 755 mmHg 72%
    13:00 +32°C° 1.4 mm 2 mps 754 mmHg 74%
    14:00 +32°C° 1.4 mm 1 mps 753 mmHg 76%
    15:00 +31°C° 0.4 mm 1 mps 753 mmHg 78%
    16:00 +31°C° 0.4 mm 1 mps 753 mmHg 80%
    17:00 +28°C° 0.4 mm 0 mps 752 mmHg 83%
    18:00 +29°C° 0.9 mm 1 mps 753 mmHg 87%
    19:00 +28°C° 0.9 mm 1 mps 754 mmHg 90%
    20:00 +27°C° 0.9 mm 1 mps 755 mmHg 94%
    21:00 +26°C° 0.5 mm 1 mps 755 mmHg 94%
    22:00 +26°C° 0.5 mm 1 mps 755 mmHg 94%
    23:00 +26°C° 0.5 mm 1 mps 756 mmHg 94%

    19 December, Wednesday

    Time Temperature Precipitation Wind Pressure Humidity
    00:00 +26°C° 1 mm 1 mps 755 mmHg 95%
    01:00 +25°C° 1 mm 1 mps 755 mmHg 95%
    02:00 +25°C° 1 mm 1 mps 754 mmHg 96%
    03:00 +25°C° 1.6 mm 1 mps 754 mmHg 96%
    04:00 +25°C° 1.6 mm 1 mps 754 mmHg 96%
    05:00 +25°C° 1.6 mm 1 mps 754 mmHg 96%
    06:00 +26°C° 1.1 mm 2 mps 755 mmHg 95%
    07:00 +26°C° 1.1 mm 2 mps 756 mmHg 94%
    08:00 +26°C° 1.1 mm 2 mps 757 mmHg 93%
    09:00 +27°C° 0.8 mm 2 mps 757 mmHg 90%
    10:00 +28°C° 0.8 mm 2 mps 756 mmHg 86%
    11:00 +29°C° 0.8 mm 3 mps 756 mmHg 83%
    12:00 +30°C° 0.6 mm 2 mps 755 mmHg 80%
    13:00 +31°C° 0.6 mm 2 mps 754 mmHg 77%
    14:00 +31°C° 0.6 mm 2 mps 753 mmHg 74%
    15:00 +31°C° 0.4 mm 2 mps 753 mmHg 77%
    16:00 +30°C° 0.4 mm 1 mps 752 mmHg 80%
    17:00 +30°C° 0.4 mm 1 mps 752 mmHg 83%
    18:00 +29°C° 0.4 mm 1 mps 753 mmHg 87%
    19:00 +27°C° 0.4 mm 1 mps 753 mmHg 90%
    20:00 +26°C° 0.4 mm 1 mps 754 mmHg 94%
    21:00 +26°C° 0.2 mm 1 mps 754 mmHg 94%
    22:00 +26°C° 0.2 mm 1 mps 754 mmHg 95%
    23:00 +26°C° 0.2 mm 1 mps 755 mmHg 96%

    20 December, Thursday

    Time Temperature Precipitation Wind Pressure Humidity
    00:00 +26°C° 0.7 mm 1 mps 754 mmHg 96%
    01:00 +25°C° 0.7 mm 1 mps 754 mmHg 96%
    02:00 +25°C° 0.7 mm 1 mps 753 mmHg 97%
    03:00 +25°C° 1 mm 1 mps 753 mmHg 97%
    04:00 +25°C° 1 mm 1 mps 753 mmHg 97%
    05:00 +25°C° 1 mm 1 mps 754 mmHg 97%
    06:00 +26°C° 0.9 mm 1 mps 754 mmHg 95%
    07:00 +27°C° 0.9 mm 1 mps 755 mmHg 94%
    08:00 +27°C° 0.9 mm 2 mps 756 mmHg 93%
    09:00 +28°C° 0.6 mm 2 mps 756 mmHg 87%
    10:00 +29°C° 0.6 mm 2 mps 755 mmHg 82%
    11:00 +30°C° 0.6 mm 2 mps 755 mmHg 76%
    12:00 +31°C° 0.4 mm 2 mps 754 mmHg 72%
    13:00 +32°C° 0.4 mm 2 mps 753 mmHg 68%
    14:00 +34°C° 0.4 mm 2 mps 752 mmHg 64%
    15:00 +32°C° 0.9 mm 2 mps 752 mmHg 72%
    16:00 +31°C° 0.9 mm 1 mps 752 mmHg 80%
    17:00 +29°C° 0.9 mm 1 mps 751 mmHg 88%
    18:00 +28°C° 0.4 mm 1 mps 752 mmHg 91%
    19:00 +27°C° 0.4 mm 1 mps 753 mmHg 93%
    20:00 +26°C° 0.4 mm 1 mps 753 mmHg 95%
    21:00 +26°C° 0.3 mm 1 mps 754 mmHg 96%
    22:00 +26°C° 0.3 mm 1 mps 754 mmHg 96%
    23:00 +26°C° 0.3 mm 1 mps 754 mmHg 97%

    21 December, Friday

    Time Temperature Precipitation Wind Pressure Humidity
    00:00 +26°C° 0.5 mm 1 mps 754 mmHg 97%
    01:00 +25°C° 0.5 mm 1 mps 753 mmHg 97%
    02:00 +25°C° 0.5 mm 1 mps 753 mmHg 97%
    03:00 +25°C° 0.9 mm 1 mps 753 mmHg 97%
    04:00 +25°C° 0.9 mm 1 mps 753 mmHg 97%
    05:00 +25°C° 0.9 mm 1 mps 753 mmHg 96%
    06:00 +26°C° 0.6 mm 1 mps 754 mmHg 95%
    07:00 +26°C° 0.6 mm 2 mps 755 mmHg 94%
    08:00 +27°C° 0.6 mm 2 mps 755 mmHg 93%
    09:00 +28°C° 0.5 mm 2 mps 755 mmHg 89%
    10:00 +29°C° 0.5 mm 2 mps 755 mmHg 85%
    11:00 +30°C° 0.5 mm 2 mps 754 mmHg 81%
    12:00 +31°C° 0.3 mm 2 mps 754 mmHg 76%
    13:00 +31°C° 0.3 mm 2 mps 753 mmHg 71%
    14:00 +32°C° 0.3 mm 2 mps 752 mmHg 67%
    15:00 +31°C° 0.5 mm 1 mps 752 mmHg 73%
    16:00 +31°C° 0.5 mm 1 mps 751 mmHg 80%
    17:00 +30°C° 0.5 mm 1 mps 751 mmHg 87%
    18:00 +29°C° 0.3 mm 1 mps 752 mmHg 89%
    19:00 +28°C° 0.3 mm 1 mps 753 mmHg 92%
    20:00 +26°C° 0.3 mm 1 mps 753 mmHg 95%
    21:00 +26°C° 0.5 mm 1 mps 754 mmHg 95%
    22:00 +24°C° 0.5 mm 0 mps 754 mmHg 96%
    23:00 +24°C° 0.5 mm 0 mps 754 mmHg 96%
    Show more